Deming, NM

2:57 AM MST on December 11, 2017 (GMT -0700)
Deming Municipal

Weather History for KDMN - May, 2013

Change the Weather History Date:

Tuesday, May 7, 2013

  Actual Average Record
Temperature  
Mean Temperature 64 °F 67 °F  
Max Temperature 79 °F 85 °F 97 °F (1989)
Min Temperature 48 °F 49 °F 37 °F (1988)
Degree Days  
Heating Degree Days 2    
Growing Degree Days 14 (Base 50)    
Moisture  
Dew Point 26 °F    
Average Humidity 25    
Maximum Humidity 42    
Minimum Humidity 11    
Precipitation  
Precipitation 0.00 in 0.02 in 0.26 in (1969)
Month to date precipitation 0.20  
Year to date precipitation 2.18  
Sea Level Pressure  
Sea Level Pressure 29.84 in    
Wind  
Wind Speed 8 mph (WSW)    
Max Wind Speed 21 mph    
Max Gust Speed 29 mph    
Visibility 10 miles    
Events      
T = Trace of Precipitation, MM = Missing Value Source: NWS Daily Summary

Daily Weather History Graph

Daily Weather History Graph

Search for Another Location

Airport or City:

Trip Planner

Search our weather history database for the weather conditions in past years. The results will help you decide how hot, cold, wet, or windy it might be!

Date:

Astronomy

May. 07, 2013 Rise Set
Actual Time 6:18 AM MDT 7:56 PM MDT
Civil Twilight 5:52 AM MDT 8:22 PM MDT
Nautical Twilight 5:20 AM MDT 8:54 PM MDT
Astronomical Twilight 4:47 AM MDT 9:28 PM MDT
Moon 4:47 AM MDT (5/7) 6:04 PM MDT (5/7)
Length of Visible Light 14h 30m
Length of Day
13h 37m
Waning Crescent, 5% of the Moon is Illuminated
May 7
Waning Crescent
May 9
New
May 17
First Quarter
May 24
Full
May 31
Last Quarter

Hourly Weather History & Observations

Time (MDT) Temp. Dew Point Humidity Pressure Visibility Wind Dir Wind Speed Gust Speed Precip Events Conditions
12:53 AM 57.9 °F 27.0 °F 31% 29.86 in 10.0 mi WNW 5.8 mph - N/A   Clear
2:53 AM 51.1 °F 25.0 °F 36% 29.87 in 10.0 mi Calm Calm - N/A   Clear
3:53 AM 48.9 °F 26.1 °F 41% 29.87 in 10.0 mi WNW 3.5 mph - N/A   Clear
4:53 AM 48.0 °F 26.1 °F 42% 29.88 in 10.0 mi Calm Calm - N/A   Clear
5:53 AM 50.0 °F 27.0 °F 41% 29.88 in 10.0 mi WSW 6.9 mph - N/A   Clear
6:53 AM 50.0 °F 27.0 °F 41% 29.89 in 10.0 mi West 5.8 mph - N/A   Clear
7:53 AM 55.9 °F 28.9 °F 36% 29.91 in 10.0 mi ESE 3.5 mph - N/A   Clear
8:53 AM 64.9 °F 33.1 °F 31% 29.91 in 10.0 mi West 10.4 mph 18.4 mph N/A   Clear
9:53 AM 68.0 °F 32.0 °F 26% 29.91 in 10.0 mi WSW 11.5 mph 25.3 mph N/A   Clear
10:53 AM 70.0 °F 30.9 °F 24% 29.91 in 10.0 mi SSW 12.7 mph 23.0 mph N/A   Clear
11:53 AM 72.0 °F 30.9 °F 22% 29.89 in 10.0 mi WSW 16.1 mph 21.9 mph N/A   Clear
12:53 PM 75.0 °F 30.9 °F 20% 29.85 in 10.0 mi WSW 13.8 mph 24.2 mph N/A   Clear
1:53 PM 78.1 °F 30.0 °F 17% 29.83 in 10.0 mi West 13.8 mph 23.0 mph N/A   Clear
2:53 PM 79.0 °F 27.0 °F 15% 29.81 in 10.0 mi WSW 15.0 mph 28.8 mph N/A   Clear
3:53 PM 78.1 °F 25.0 °F 14% 29.79 in 10.0 mi West 8.1 mph 18.4 mph N/A   Clear
4:53 PM 77.0 °F 21.9 °F 13% 29.78 in 9.0 mi WSW 20.7 mph 26.5 mph N/A   Clear
5:53 PM 77.0 °F 24.1 °F 14% 29.76 in 10.0 mi West 12.7 mph 20.7 mph N/A   Clear
6:53 PM 77.0 °F 19.0 °F 11% 29.75 in 9.0 mi West 19.6 mph 27.6 mph N/A   Clear
7:53 PM 73.0 °F 21.0 °F 14% 29.76 in 10.0 mi WSW 12.7 mph 20.7 mph N/A   Clear
8:53 PM 70.0 °F 21.0 °F 16% 29.76 in 10.0 mi WSW 10.4 mph - N/A   Clear
9:53 PM 66.9 °F 21.0 °F 17% 29.78 in 10.0 mi WSW 9.2 mph - N/A   Clear
10:53 PM 64.0 °F 21.9 °F 20% 29.79 in 10.0 mi WSW 9.2 mph - N/A   Clear
11:53 PM 62.1 °F 23.0 °F 22% 29.81 in 10.0 mi WSW 6.9 mph - N/A   Clear